This is the latest recevied weather packets stored in our database for station/object CA4LJZ-10. If no packets are shown the sender has not sent any weather packets the latest 10 day(s).
| Time | Temp. | Humidity | Pressure | Rain* | Wind** | Luminosity | Snow |
|---|---|---|---|---|---|---|---|
| 1777531107 | 19.44° C | 47% | 949.3 hPa | - | - | - | - |
| 1777530206 | 19.44° C | 45% | 949.3 hPa | - | - | - | - |
| 1777529305 | 19.44° C | 46% | 949.3 hPa | - | - | - | - |
| 1777528404 | 19.44° C | 45% | 949.3 hPa | - | - | - | - |
| 1777527502 | 21.11° C | 45% | 949.3 hPa | - | - | - | - |
| 1777526626 | 20° C | 46% | 949.3 hPa | - | - | - | - |
| 1777525726 | 20° C | 46% | 949.3 hPa | - | - | - | - |
| 1777524825 | 20° C | 47% | 949.4 hPa | - | - | - | - |
| 1777523923 | 19.44° C | 47% | 949.5 hPa | - | - | - | - |
| 1777523023 | 19.44° C | 47% | 949.6 hPa | - | - | - | - |
| 1777522122 | 20.56° C | 44% | 949.6 hPa | - | - | - | - |
| 1777521220 | 20.56° C | 44% | 949.7 hPa | - | - | - | - |
| 1777520317 | 21.11° C | 44% | 950 hPa | - | - | - | - |
| 1777519416 | 20.56° C | 45% | 950.2 hPa | - | - | - | - |
| 1777518514 | 20.56° C | 46% | 950.3 hPa | - | - | - | - |
| 1777517613 | 21.11° C | 43% | 950.4 hPa | - | - | - | - |
| 1777516712 | 21.67° C | 43% | 950.4 hPa | - | - | - | - |
| 1777515812 | 22.22° C | 42% | 950.4 hPa | - | - | - | - |
| 1777514910 | 22.22° C | 40% | 950.4 hPa | - | - | - | - |
| 1777514010 | 22.22° C | 40% | 950.4 hPa | - | - | - | - |
| 1777513109 | 22.78° C | 40% | 950.5 hPa | - | - | - | - |
| 1777512208 | 22.78° C | 39% | 950.5 hPa | - | - | - | - |
| 1777511307 | 22.78° C | 39% | 950.6 hPa | - | - | - | - |
| 1777510406 | 23.33° C | 38% | 950.5 hPa | - | - | - | - |
| 1777509505 | 23.89° C | 38% | 950.6 hPa | - | - | - | - |
* Rain since midnight (hover to see other rain measurements)
** Current wind speed in m/s (hover to see current wind gust speed)